Regional Weather Roundup
Issued by NWS

Home | Current Version | Previous Version | Graphics & Text | Print | Product List | Glossary Off
Versions: 1 2 3 4 5 6 7 8 9 10 11 12 13 14 15 16 17 18 19 20 21 22 23 24 25 26 27 28 29 30 31 32 33 34 35 36 37 38 39 40 41 42 43 44 45 46 47 48 49 50

000
ASUS43 KMPX 301210
RWRMN
WEATHER ROUNDUP FOR MINNESOTA
NATIONAL WEATHER SERVICE TWIN CITIES/CHANHASSEN MN
700 AM CDT SAT APR 30 2016


NOTE: "FAIR" INDICATES FEW OR NO CLOUDS BELOW 12,000 FEET WITH NO
SIGNIFICANT WEATHER AND/OR OBSTRUCTIONS TO VISIBILITY. N/A MEANS
CURRENT SKY AND/OR WEATHER CONDITIONS ARE NOT AVAILABLE.

MNZ060>063-068>070-301300-
   Twin Cities Metro

CITY           SKY/WX    TMP DP  RH WIND       PRES   REMARKS
TWIN CITIES    MOCLDY    43  32  65 NE14      30.09R
6HR MIN TEMP:  42; 6HR MAX TEMP:  49;

ST PAUL        MOCLDY    42  33  70 NE12      30.11R
CRYSTAL        MOCLDY    40  31  70 NE8       30.10R
BLAINE         MOCLDY    39  34  81 NE8       30.11R
EDEN PRAIRIE   PTCLDY    43  32  65 NE9       30.06S
6HR MIN TEMP:  42; 6HR MAX TEMP:  49;

SOUTH ST PAUL  MOCLDY    42  32  68 NE7       30.09F
LAKE ELMO      FAIR      41  34  75 NE7       30.11S
$$
MNZ001>005-007-008-013>017-022>024-027-028-301300-
   Northwest Minnesota

CITY           SKY/WX    TMP DP  RH WIND       PRES   REMARKS
BEMIDJI        CLEAR     36  32  86 NE8       30.25R
HALLOCK        CLEAR     39  30  70 E9        30.30R
ROSEAU         CLEAR     34  28  80 NE6       30.31R WCI  29
WARROAD        CLEAR     36  32  87 NE6       30.33R
THIEF RVR FALL CLEAR     37  30  75 NE8       30.28R
CROOKSTON      CLEAR     37  32  81 E7        30.27R
FOSSTON        CLEAR     36  30  80 NE5       30.26R
DETROIT LAKES  CLEAR     41  32  70 E7        30.20S
MOORHEAD       CLEAR     41  30  65 NE7       30.21S
PARK RAPIDS    CLEAR     41  30  65 E8        30.21R
MAHNOMEN       FAIR      38  31  77 NE9       30.23R
$$
MNZ006-009>011-018-025>026-301300-
   North Central Minnesota

CITY           SKY/WX    TMP DP  RH WIND       PRES   REMARKS
BAUDETTE       CLEAR     35  29  78 NE5       30.31R WCI  31
FLAG ISLAND    CLEAR     39  30  70 CALM      30.33R
INTL FALLS     CLEAR     36  32  85 NE7       30.30S
6HR MIN TEMP:  26; 6HR MAX TEMP:  40;

WASKISH        CLEAR     36  32  87 NE6       30.28S
BIG FORK       CLEAR     36  30  80 CALM      30.28R
LONGVILLE      CLEAR     37  30  75 E6        30.22S
GRAND RAPIDS   CLEAR     37  28  70 E3        30.25R
CRANE LAKE     CLEAR     25  25 100 CALM      30.31S
ORR            CLEAR     30  28  93 CALM      30.26R
COOK           PTCLDY    28  28 100 CALM      30.28R
WALKER         FAIR      40  32  73 E10       30.23S
$$
MNZ012-019>021-037-301300-
   Northeast Minnesota

CITY           SKY/WX    TMP DP  RH WIND       PRES   REMARKS
DULUTH         PTCLDY    38  30  73 E16       30.23R
6HR MIN TEMP:  35; 6HR MAX TEMP:  38;

ELY            SUNNY     36  30  80 CALM      30.28R
HIBBING        CLEAR     34  30  85 NE3       30.25R
EVELETH        CLEAR     36  30  80 NE7       30.26S
DULUTH HARBOR  CLEAR     39  36  87 NE15      30.26R
TWO HARBORS    SUNNY     43  34  70 NE8       30.24R
SILVER BAY     SUNNY     43  30  61 NE7       30.24F
GRAND MARAIS     N/A     44  29  55 NE6       30.29R
G MARAIS ARPRT SUNNY     36  27  69 N7        30.27S
$$
MNZ029>031-032-039>041-046>048-054>057-064-301300-
   West Central Minnesota

CITY           SKY/WX    TMP DP  RH WIND       PRES   REMARKS
FERGUS FALLS   CLEAR     41  30  65 E14       30.14F
WHEATON        CLOUDY    43  36  75 NE12G18   30.14S
MORRIS         CLOUDY    41  32  70 NE16      30.09S
ALEXANDRIA     PTCLDY    39  30  70 NE15      30.12F
ELBOW LAKE     FAIR      40  32  73 NE10      30.12F
WADENA         CLEAR     37  28  70 NE13      30.17S
GLENWOOD       MOCLDY    37  32  81 NE15G23   30.10F
APPLETON       CLOUDY    39  34  81 NE9       30.08S
BENSON         PTCLDY    39  30  70 E13       30.09R
ORTONVILLE     CLOUDY    39  34  81 NE13      30.08S
MADISON        MOCLDY    41  34  75 NE13      30.06S
WILLMAR        FAIR      43  34  70 NE13G20   30.07F
$$
MNZ033>034-036-042>043-049>051-058-059-301300-
   Central Minnesota

CITY           SKY/WX    TMP DP  RH WIND       PRES   REMARKS
ST CLOUD       PTCLDY    38  30  73 NE14G23   30.12S
6HR MIN TEMP:  38; 6HR MAX TEMP:  45;

SAUK CENTRE    FAIR      38  31  77 NE13      30.12S
PAYNESVILLE    MOCLDY    38  31  75 NE13      30.11R
AITKIN         CLEAR     39  28  65 NE9       30.19S
PINE RIVER     CLEAR     37  30  75 E13       30.24S
BRAINERD       CLEAR     38  29  70 NE14      30.19R
STAPLES        CLEAR     37  28  70 NE9       30.17S
LONG PRAIRIE   FAIR      36  30  80 NE13      30.14S
LITTLE FALLS   CLOUDY    37  30  75 NE8       30.15S
LITCHFIELD     CLOUDY    39  36  87 NE9       30.08F
BUFFALO        CLOUDY    39  32  74 NE15      30.11S
MAPLE LAKE     PTCLDY    39  33  79 NE8       30.12R
HUTCHINSON     CLEAR     40  34  79 NE14      30.07S
$$
MNZ037-044-045-052-053-301300-
   East Central Minnesota

CITY           SKY/WX    TMP DP  RH WIND       PRES   REMARKS
PRINCETON      CLOUDY    39  30  70 NE10G17   30.14R
MORA           CLOUDY    36  30  80 E6        30.17F
CAMBRIDGE      CLOUDY    39  28  65 NE6       30.13R
RUSH CITY      CLOUDY    36  31  81 NE10G16   30.16R
MOOSE LAKE     CLEAR     36  32  87 NE7       30.19R
HINCKLEY       FAIR      37  32  81 NE8       30.17S
CLOQUET        CLEAR     39  30  70 E13       30.22S
MCGREGOR       CLEAR     36  32  87 NE7       30.21S
$$
MNZ071>073-080-081-089-090-097-098-301300-
   Southwest Minnesota

CITY           SKY/WX    TMP DP  RH WIND       PRES   REMARKS
MONTEVIDEO     CLOUDY    39  34  81 E15       30.07S
GRANITE FALLS  MOCLDY    41  35  77 NE13G21   30.05F
CANBY          CLOUDY    42  38  88 NE12      30.05S
MARSHALL       CLOUDY    41  35  79 NE15      30.02S
REDWOOD FALLS  CLOUDY    41  33  73 NE8G17    30.03F
OLIVIA         CLOUDY    39  32  75 NE12G17   30.04F
PIPESTONE      CLOUDY    43  39  87 E16G22    29.94F
WINDOM         MOCLDY    43  39  87 NE13      29.97F
WORTHINGTON    CLOUDY    42  38  85 NE18      29.93F
JACKSON        CLOUDY    43  37  81 NE17G24   29.95F
TRACY          CLOUDY    41  38  90 NE13      30.00F
SLAYTON        CLOUDY    41  39  93 NE14G20   29.97F
$$
MNZ065>067-074>077-082>085-091>093-301300-
   South Central Minnesota

CITY           SKY/WX    TMP DP  RH WIND       PRES   REMARKS
MANKATO        CLOUDY    45  36  70 NE13      30.02F
NEW ULM        MOCLDY    43  34  70 NE12      30.01F
ST JAMES       CLOUDY    37  36  93 NE8       30.01S
FAIRMONT       CLOUDY    45  30  57 NE15      29.95F
GLENCOE        CLOUDY    40  35  83 NE8       30.05F
FARIBAULT      CLOUDY    41  37  87 NE5       30.05F
OWATONNA       CLOUDY    43  37  81 NE12      30.02F
WASECA         CLOUDY    43  36  75 NE14      30.02F
ALBERT LEA     CLOUDY    43  37  81 E16       29.97F
$$
MNZ078>079-086>088-094>096-301300-
   Southeast Minnesota

CITY           SKY/WX    TMP DP  RH WIND       PRES   REMARKS
ROCHESTER      CLOUDY    41  38  89 E15       30.03F
6HR MIN TEMP:  40; 6HR MAX TEMP:  43;

RED WING       CLOUDY    43  36  75 E9        30.07F
STANTON        CLOUDY    42  36  78 E8        30.05F
DODGE CENTER   CLOUDY    41  37  87 E15       30.02F
WINONA         CLOUDY    41  37  87 SE5       30.08S
AUSTIN         CLOUDY    43  37  81 E17       29.99F
PRESTON        CLOUDY    41  36  83 E15       30.02F
$$
ABBREVIATIONS USED IN REMARKS
   TC - TEMPERATURES IN CELSIUS
  WCI - WIND CHILL INDEX
   HX - HEAT INDEX
  VSB - VISIBILITY
$$




USA.gov is the U.S. government's official web portal to all federal, state and local government web resources and services.